Weather History for KBFM - October, 2012

Change the Weather History Date:

Thursday, October 4, 2012

  Actual Average Record
Temperature  
Mean Temperature 75 °F -  
Max Temperature 86 °F 79 °F 89 °F (2000)
Min Temperature 64 °F 63 °F 46 °F (2010)
Cooling Degree Days 10    
Growing Degree Days 25 (Base 50)    
Moisture  
Dew Point 63 °F    
Average Humidity 68    
Maximum Humidity 90    
Minimum Humidity 44    
Precipitation  
Precipitation 0.00 in - - ()
Sea Level Pressure  
Sea Level Pressure 30.19 in    
Wind  
Wind Speed 6 mph (NE)    
Max Wind Speed 9 mph    
Max Gust Speed -    
Visibility 10 miles    
Events      
Averages and records for this station are not official NWS values.
T = Trace of Precipitation, MM = Missing Value Source: NWS Daily Summary

Daily Weather History Graph

Daily Weather History Graph

Search for Another Location

Airport or City:

Trip Planner

Search our weather history database for the weather conditions in past years. The results will help you decide how hot, cold, wet, or windy it might be!

Date:

Astronomy

Oct. 04, 2012 Rise Set
Actual Time 6:47 AM CDT 6:33 PM CDT
Civil Twilight 6:23 AM CDT 6:57 PM CDT
Nautical Twilight 5:55 AM CDT 7:25 PM CDT
Astronomical Twilight 5:27 AM CDT 7:53 PM CDT
Moon 9:27 PM CDT (10/4) 10:46 AM CDT (10/4)
Length of Visible Light 12h 33m
Length of Day
11h 45m
Waning Gibbous, 82% of the Moon is Illuminated
Oct 4
Waning Gibbous
Oct 8
Last Quarter
Oct 15
New
Oct 21
First Quarter
Oct 29
Full

Hourly Weather History & Observations

Time (CDT) Temp. Heat Index Dew Point Humidity Pressure Visibility Wind Dir Wind Speed Gust Speed Precip Events Conditions
12:53 AM 72.0 °F - 63.0 °F 73% 30.16 in 10.0 mi East 8.1 mph - N/A   Clear
1:53 AM 68.0 °F - 62.1 °F 81% 30.17 in 10.0 mi North 4.6 mph - N/A   Clear
2:53 AM 70.0 °F - 62.1 °F 76% 30.17 in 10.0 mi NNE 4.6 mph - N/A   Clear
3:22 AM 69.8 °F - 62.6 °F 78% 30.17 in 10.0 mi NNE 5.8 mph - N/A   Clear
3:53 AM 68.0 °F - 62.1 °F 81% 30.17 in 10.0 mi NE 8.1 mph - N/A   Clear
4:53 AM 68.0 °F - 62.1 °F 81% 30.19 in 10.0 mi NNE 5.8 mph - N/A   Clear
5:53 AM 64.0 °F - 61.0 °F 90% 30.20 in 10.0 mi North 3.5 mph - N/A   Clear
6:53 AM 68.0 °F - 63.0 °F 84% 30.22 in 10.0 mi NE 6.9 mph - N/A   Clear
7:53 AM 68.0 °F - 64.0 °F 87% 30.23 in 10.0 mi NE 5.8 mph - N/A   Clear
8:53 AM 72.0 °F - 64.9 °F 78% 30.25 in 10.0 mi NE 4.6 mph - N/A   Clear
9:53 AM 75.9 °F - 66.0 °F 71% 30.25 in 10.0 mi NNE 5.8 mph - N/A   Clear
10:53 AM 78.1 °F - 66.0 °F 66% 30.24 in 10.0 mi NE 6.9 mph - N/A   Clear
11:53 AM 81.0 °F 83.0 °F 66.0 °F 60% 30.23 in 10.0 mi ENE 6.9 mph - N/A   Clear
12:53 PM 82.9 °F 84.4 °F 64.0 °F 53% 30.20 in 10.0 mi ENE 5.8 mph - N/A   Clear
1:53 PM 84.9 °F 86.1 °F 64.0 °F 49% 30.19 in 10.0 mi East 5.8 mph - N/A   Clear
2:53 PM 86.0 °F 86.8 °F 63.0 °F 46% 30.17 in 10.0 mi NE 4.6 mph - N/A   Partly Cloudy
3:53 PM 86.0 °F 86.3 °F 62.1 °F 44% 30.17 in 10.0 mi NE 4.6 mph - N/A   Partly Cloudy
5:53 PM 82.9 °F 84.0 °F 63.0 °F 51% 30.15 in 10.0 mi NE 4.6 mph - N/A   Partly Cloudy
6:53 PM 81.0 °F 81.9 °F 62.1 °F 52% 30.16 in 10.0 mi NE 5.8 mph - N/A   Partly Cloudy
7:53 PM 73.9 °F - 63.0 °F 68% 30.16 in 10.0 mi North 4.6 mph - N/A   Clear
8:53 PM 75.9 °F - 64.0 °F 67% 30.18 in 10.0 mi North 4.6 mph - N/A   Clear
9:53 PM 75.0 °F - 64.9 °F 71% 30.18 in 10.0 mi North 4.6 mph - N/A   Clear
10:53 PM 75.9 °F - 64.9 °F 69% 30.19 in 10.0 mi NE 6.9 mph - N/A   Clear
11:53 PM 75.9 °F - 64.0 °F 67% 30.18 in 10.0 mi ENE 9.2 mph - N/A   Clear